• Join FlightAware (Why Join?)
  • Login
  • US Flag 
06:05AM EDT


 

Airport Tracker/Info


-or-


 

Live Flight TrackerFlight Track Log ✈ N996JS ✈ 28-Mar-2014 ✈ KMCO - KPIE

Flight Track Log - Related Links

Times and Time Zones

All times are in EDT time to prevent confusion due to time zone crossing. See the N996JS flight status page for this flight to view local times or setup timezone preferences in your user account.

Time Position Orientation Groundspeed Altitude Reporting Facility
EDT Latitude Longitude Course Direction KTS MPH feet Rate Location/Type
06:26PM 28.3667 -81.3333 192° South 249 287 5,100  Level Orlando TRACON
06:27PM 28.3333 -81.4000 240° Southwest 243 280 9,900 3,420 Climbing Orlando TRACON
06:29PM 28.3333 -81.4833 270° West 293 337 12,000 540 Climbing Orlando TRACON
06:31PM 28.3000 -81.7333 261° West 283 326 12,000  Level Tampa TRACON
06:32PM 28.2833 -81.8167 257° West 290 334 12,000  Level Tampa TRACON
06:33PM 28.2667 -81.9167 259° West 299 344 12,000 -600 Level Tampa TRACON
06:34PM 28.2500 -82.0000 257° West 299 344 10,800 -1,440 Descending Tampa TRACON
06:35PM 28.2333 -82.0833 257° West 269 310 9,200 -1,620 Descending Tampa TRACON
06:36PM 28.2167 -82.1667 257° West 255 293 7,800 -1,620 Descending Tampa TRACON
06:37PM 28.2000 -82.2500 257° West 266 306 6,200 -1,500 Descending Tampa TRACON
06:38PM 28.1833 -82.3167 254° West 265 305 4,800 -1,500 Descending Tampa TRACON
06:39PM 28.1667 -82.4000 257° West 257 296 3,300 -900 Descending Tampa TRACON
06:40PM 28.1667 -82.4833 270° West 258 297 3,000 -180 Descending Tampa TRACON
06:41PM 28.1667 -82.5667 270° West 266 306 3,000  Level Tampa TRACON
06:42PM 28.1667 -82.6333 270° West 201 231 3,000  Level Tampa TRACON
06:43PM 28.1500 -82.6833 249° West 150 173 3,000 -180 Level Tampa TRACON
06:44PM 28.1167 -82.7000 204° Southwest 157 181 2,700 -420 Descending Tampa TRACON
06:45PM 28.0667 -82.7167 196° South 159 183 2,200 -480 Descending Tampa TRACON
06:46PM 28.0167 -82.7167 180° South 159 183 1,800 -540 Descending Tampa TRACON
06:47PM 27.9833 -82.7000 156° South 139 160 1,200 -660 Descending Tampa TRACON
06:48PM 27.9500 -82.7000 180° South 128 147 500 -720 Descending Tampa TRACON
06:50PM 27.9100 -82.6875 North  Level Estimated